Probability
0 0 0 0 0 0 0 0 1 0 1 2 2 1 1 2 5 7 8 7 8 10 12 9 7 8 8 6 5 6 7 7 6 5 4 4 6 8 9 9 7 6 6 5
0 0 0 0 0 0 0 1 1 1 1 3 2 1 1 3 5 9 10 9 8 9 12 13 11 9 8 6 6 7 8 7 7 5 5 5 7 11 13 13 11 11 10 8
0 0 0 0 0 0 0 1 1 1 2 3 3 2 3 5 8 12 13 11 8 9 13 15 14 12 10 8 8 9 9 10 9 8 9 10 11 15 20 20 18 19 18 15
1 0 0 0 0 0 0 1 1 2 2 4 6 5 6 10 14 16 16 13 9 9 12 13 13 13 14 14 15 15 14 15 15 14 16 17 18 22 26 26 25 26 25 22
2 1 0 0 0 1 1 1 2 3 4 7 8 6 8 15 19 19 19 16 13 12 12 12 12 14 17 20 21 20 19 21 22 23 26 27 29 33 35 34 32 30 28 27
2 1 0 0 0 1 2 2 2 4 6 9 10 10 13 18 19 18 19 18 17 17 15 15 15 18 21 23 22 22 22 24 26 32 37 40 44 46 44 41 39 35 32 32
1 0 0 0 0 1 3 3 2 4 6 8 10 13 16 16 14 14 14 15 17 19 20 20 22 26 29 29 27 25 25 25 29 34 39 43 48 50 49 46 43 40 37 36
0 1 1 1 1 4 6 4 1 2 4 6 7 9 11 10 9 8 9 11 14 18 20 22 24 27 31 33 31 29 27 27 30 32 33 36 41 45 45 43 40 37 36 36
2 3 4 3 3 5 4 2 0 0 1 2 2 3 5 5 5 5 6 8 12 16 17 17 19 22 26 30 31 29 28 28 29 30 30 31 34 36 36 34 30 27 30 33
3 4 4 3 2 2 1 0 0 0 0 0 1 2 4 4 3 4 5 5 7 11 12 11 13 17 21 26 30 30 28 28 27 28 29 29 28 27 25 23 21 20 24 28
3 3 2 2 1 0 0 0 0 1 1 0 0 1 3 2 1 2 3 2 4 6 6 6 8 12 17 22 27 28 27 24 23 24 25 24 20 16 14 14 14 13 15 18
1 1 1 1 0 0 0 0 0 1 1 0 0 0 1 1 0 1 1 1 2 4 4 3 4 8 11 15 19 22 22 20 18 17 17 16 14 10 6 5 5 4 5 6
0 0 0 0 0 0 0 0 0 1 1 0 0 0 0 0 0 0 0 0 1 2 3 3 4 6 9 10 13 16 17 17 15 12 10 9 9 7 3 1 0 0 0 1
0 0 0 0 0 0 0 0 0 0 0 0 0 0 0 0 0 0 0 0 0 1 2 3 3 5 7 9 11 12 13 13 12 9 7 6 4 4 2 1 0 0 0 0
0 0 0 0 0 0 0 0 0 0 0 0 0 0 0 0 0 0 0 0 0 1 2 3 2 3 5 7 8 9 8 8 8 7 5 3 1 1 1 0 0 0 0 0
0 0 0 0 0 0 0 0 0 0 0 0 0 0 0 0 0 0 0 0 0 0 1 2 2 2 3 4 5 5 4 4 4 5 3 1 0 0 0 0 0 0 0 0
0 0 0 0 0 0 0 0 0 0 0 0 0 0 0 0 0 0 0 0 0 0 0 1 1 2 3 3 3 3 3 2 2 3 2 1 1 1 1 0 0 0 0 0
0 0 0 0 0 0 0 0 0 0 0 0 0 0 0 0 0 0 0 0 0 0 0 0 0 1 2 2 2 2 2 2 2 2 2 2 2 2 1 0 0 0 0 0
0 0 0 1 1 0 0 0 0 0 0 0 0 0 0 0 0 0 0 0 0 0 0 0 0 0 1 1 1 1 1 1 1 1 1 1 1 1 1 0 0 0 0 0
0 0 0 1 1 0 0 0 0 0 0 0 0 0 0 0 0 0 0 0 0 0 0 0 0 0 0 0 0 0 0 0 0 0 0 0 0 0 0 0 0 0 0 0
0 0 0 0 0 0 0 0 0 0 0 0 0 0 0 0 0 0 0 0 0 0 0 0 0 0 0 0 0 0 0 0 0 0 0 0 0 0 0 0 0 0 0 0
0 0 0 0 0 0 0 0 0 0 0 0 0 0 0 0 0 0 0 0 0 0 0 0 0 0 0 0 0 0 0 0 0 0 0 0 0 0 0 0 0 0 0 0
0 0 0 0 0 0 0 0 0 0 0 0 0 0 0 0 0 0 0 0 0 0 0 0 0 0 0 0 0 0 0 0 0 0 0 0 0 0 0 0 0 0 0 0
0 0 0 0 0 0 0 0 0 0 0 0 0 0 0 0 0 0 0 0 0 0 0 0 0 0 0 0 0 0 0 0 0 0 0 0 0 0 0 0 0 0 0 0
0 0 0 0 0 0 0 0 0 0 0 0 0 0 0 0 0 0 0 0 0 0 0 0 0 0 0 0 0 0 0 0 0 0 0 0 0 0 0 0 0 0 0 0
0 0 0 0 0 0 0 0 0 0 0 0 0 0 0 0 0 0 0 0 0 0 0 0 0 0 0 0 0 0 0 0 0 0 0 0 0 0 0 0 0 0 0 0
0 0 0 0 0 0 0 0 0 0 0 0 0 0 0 0 0 0 0 0 0 0 0 0 0 0 0 0 0 0 0 0 0 0 0 0 0 0 0 0 0 0 0 0
Wind_Speed
8 5 6 8 9 10 11 11 11 8 6 2 2 2 2 1 3 5 6 7 8 9 9 10 11 11 11 12 13 13 14 14 13 13 12 12 12 12 12 11 12 11 11 11
8 7 7 9 10 11 11 10 10 9 6 2 2 2 2 1 1 3 4 6 7 8 9 10 11 11 12 12 13 13 14 14 13 13 13 13 12 12 12 12 11 11 11 11
8 6 8 11 9 10 9 8 9 8 3 1 1 2 3 3 1 0 1 3 5 6 7 8 9 10 11 12 12 13 13 13 13 13 13 13 13 13 12 12 11 11 11 11
6 6 12 1 2 3 5 5 4 4 2 1 1 3 4 4 3 3 2 1 2 3 5 6 7 8 9 11 12 12 12 12 12 12 12 11 12 12 11 10 10 10 10 10
6 9 7 3 1 2 4 2 3 2 1 1 3 4 6 7 6 4 4 3 1 1 2 4 6 7 8 9 10 10 10 10 11 11 11 11 10 10 9 9 9 9 9 10
7 9 7 3 4 2 4 4 3 3 2 1 2 3 4 7 6 6 6 4 3 2 2 3 4 6 8 8 8 8 9 9 9 9 9 9 9 8 8 8 8 8 8 8
8 8 2 5 2 3 6 2 4 4 3 2 2 4 5 5 6 6 6 7 6 5 5 3 2 5 6 6 6 6 6 6 6 6 7 6 6 6 6 7 7 6 6 5
6 7 2 5 1 2 4 4 2 3 3 3 5 6 6 6 6 7 7 8 8 7 7 6 5 5 6 5 4 4 5 5 5 4 4 4 5 4 4 5 5 5 5 5
2 2 5 4 4 4 3 2 2 1 1 4 6 7 7 7 7 8 8 8 8 9 9 9 8 7 7 5 4 5 6 6 5 4 3 3 3 4 3 3 2 3 3 3
1 2 2 4 4 4 4 3 2 2 2 5 7 8 8 7 8 8 9 9 9 10 11 10 9 8 8 7 6 7 7 6 5 5 5 4 2 2 2 2 2 2 2 2
2 2 3 4 6 6 5 5 5 6 7 9 10 10 9 9 9 9 9 10 10 10 10 10 9 9 8 7 7 7 7 6 5 5 5 5 5 4 3 3 3 1 0 0
0 3 2 4 4 6 6 7 9 10 11 11 12 12 12 11 10 10 11 10 11 11 11 10 9 9 8 7 7 6 6 5 4 4 4 4 5 5 9 7 8 9 8 5
2 4 5 5 6 7 8 10 11 12 12 12 12 12 12 11 10 11 11 11 11 10 10 10 10 10 9 8 8 8 7 5 4 4 4 4 3 4 5 6 8 8 8 7
5 7 7 6 7 9 11 12 13 13 13 13 12 12 12 11 11 11 10 10 10 10 10 10 11 10 9 8 8 7 7 6 5 4 4 4 3 3 3 3 3 4 6 6
5 6 8 9 10 11 12 12 13 13 13 13 12 11 11 11 11 10 9 10 10 11 11 11 11 10 8 8 8 8 7 6 5 4 4 4 3 3 3 3 3 2 3 4
7 9 11 12 12 12 12 13 13 13 13 12 11 11 11 11 10 10 10 9 10 11 10 10 10 9 8 8 7 6 6 7 5 4 4 4 4 3 3 3 3 3 4 4
10 11 12 13 12 12 12 12 12 12 12 12 11 11 11 11 11 10 10 10 10 10 10 9 9 9 8 8 7 5 5 5 3 4 5 5 4 4 4 4 4 3 4 5
8 10 10 12 12 12 13 13 12 12 12 12 11 10 10 10 10 9 9 9 9 10 10 10 9 8 9 9 7 6 5 5 5 5 5 5 5 4 4 4 4 4 3 2
10 12 12 13 13 12 12 12 12 11 11 10 10 10 10 10 9 9 8 8 8 9 9 9 7 7 9 9 7 4 5 5 5 5 4 3 3 4 4 4 4 4 4 4
13 13 13 13 12 12 12 12 12 11 10 10 11 10 10 9 8 8 8 9 9 8 8 7 7 8 8 8 8 5 6 6 5 5 5 5 5 5 5 5 5 5 5 5
14 14 14 13 12 12 12 12 11 11 10 10 10 10 9 8 7 6 6 8 8 7 6 5 6 7 8 7 5 6 6 6 5 5 5 5 5 5 5 5 5 5 5 5
12 12 13 12 12 11 10 10 10 11 10 9 9 9 8 7 7 8 8 7 7 6 5 7 8 9 9 8 5 6 6 6 5 5 5 5 5 5 5 5 5 5 5 5
10 11 11 11 11 11 10 10 10 9 9 9 8 7 7 6 5 5 6 6 6 6 6 8 9 9 10 5 5 5 6 6 5 5 5 5 4 4 4 5 5 5 5 5
10 11 10 10 10 10 10 9 8 8 8 8 8 7 6 5 5 6 7 7 6 5 7 7 7 8 7 4 5 5 5 5 5 5 5 5 5 5 5 5 5 5 5 6
10 10 10 10 9 7 8 8 8 8 7 6 8 7 6 5 5 6 6 7 5 3 5 6 4 6 4 5 5 5 6 6 6 5 5 5 5 5 5 5 5 5 5 6
9 7 7 7 6 5 5 5 5 5 5 6 6 6 6 5 5 4 4 5 6 4 4 4 4 3 5 5 5 5 5 4 4 4 5 5 5 5 5 5 6 5 5 6
8 7 6 6 5 5 5 5 5 5 5 5 5 5 5 4 4 4 4 4 4 4 4 3 3 4 4 5 5 4 4 4 4 4 4 4 5 5 5 6 5 5 5 6
Wind_Direction
258 261 242 237 232 227 235 255 270 273 270 308 14 26 36 115 168 168 173 179 180 182 183 184 184 183 186 185 186 185 186 190 189 191 191 194 194 194 194 198 201 200 202 205
239 240 242 246 242 240 242 251 257 261 267 12 39 50 54 57 180 181 179 184 189 189 188 190 190 189 188 189 188 188 191 193 191 193 193 195 196 197 197 200 204 202 205 207
242 231 241 237 237 243 246 248 256 262 275 332 349 50 32 23 9 270 195 193 198 198 197 196 196 192 192 191 187 190 195 196 193 195 197 198 200 199 201 202 203 205 208 210
243 228 239 175 32 279 262 267 280 283 298 314 39 75 59 40 26 22 6 302 218 208 200 199 196 191 192 188 186 188 193 195 193 196 199 200 202 204 204 204 204 205 208 211
238 236 236 175 149 290 263 243 7 341 337 25 125 140 95 50 34 29 21 5 340 252 200 187 187 184 181 183 182 184 188 191 192 193 194 196 199 200 200 201 204 207 209 212
235 242 242 112 72 336 261 208 50 24 14 357 218 229 84 49 39 38 34 33 34 55 107 140 171 173 170 174 177 183 186 187 186 185 188 191 195 198 198 200 205 209 212 215
239 244 225 60 25 252 239 85 40 23 18 23 34 39 70 60 49 45 46 46 49 57 63 73 126 154 157 159 166 171 168 166 169 172 177 182 187 192 194 196 198 204 206 208
235 238 183 54 1 327 16 21 14 9 19 60 85 94 90 76 66 56 54 54 56 61 58 52 66 104 114 117 127 134 137 138 142 151 163 163 166 173 183 193 190 190 197 206
317 10 49 28 16 7 345 328 342 338 23 108 109 102 94 85 75 67 61 60 62 67 65 57 57 71 89 91 107 118 119 118 118 121 124 126 137 148 157 171 191 197 201 205
194 111 54 38 34 35 33 37 34 60 117 123 112 104 95 87 78 72 69 68 67 68 68 62 55 59 67 76 86 97 102 104 106 109 109 107 111 124 135 150 175 190 211 212
170 115 81 50 44 49 52 63 76 81 90 104 106 101 96 88 81 76 73 68 66 67 67 64 60 58 57 65 80 88 90 94 100 103 102 97 84 57 67 63 35 36 71 99
102 107 100 78 65 71 78 81 87 92 91 91 95 96 91 84 78 74 73 70 67 65 66 65 64 63 59 61 73 84 88 85 87 91 90 96 104 94 58 64 69 60 43 36
78 95 93 98 87 88 93 92 92 92 94 93 90 91 90 87 81 77 74 71 69 67 66 65 62 58 54 56 65 72 76 73 80 84 94 98 102 113 117 100 91 82 72 61
120 118 111 104 100 104 105 103 99 95 93 93 93 92 90 87 83 79 76 76 75 72 69 68 63 56 51 57 60 64 71 69 60 69 69 75 79 79 80 85 104 106 104 89
119 116 120 117 113 111 112 110 106 102 100 96 95 93 91 91 88 86 85 84 81 75 68 66 64 56 51 58 62 58 54 53 52 58 64 64 60 59 60 56 51 51 71 107
122 121 124 123 120 120 119 114 110 108 107 106 103 102 101 98 94 87 81 77 75 71 65 61 58 52 48 48 55 66 69 53 33 49 60 58 53 47 47 43 38 32 31 29
141 138 135 131 129 126 121 116 114 114 114 111 109 109 108 103 97 90 84 77 72 67 60 54 49 43 42 39 35 46 54 66 56 44 49 43 37 29 24 20 28 28 32 52
139 136 136 136 132 124 119 117 116 116 115 115 114 110 104 99 94 91 86 82 76 65 55 49 42 43 44 38 27 22 32 36 37 39 42 39 23 21 21 19 18 15 14 55
127 127 127 126 124 122 120 119 117 113 112 111 107 103 100 96 93 90 87 79 72 66 53 48 36 40 45 32 5 23 25 28 32 36 33 38 11 20 16 14 13 10 6 4
121 121 120 119 120 119 118 116 114 111 109 108 106 103 98 94 92 90 84 71 54 50 49 36 35 40 36 29 356 19 28 28 27 26 24 19 18 16 13 12 8 7 7 3
119 119 118 115 113 112 112 113 112 111 110 109 106 103 100 95 90 84 80 80 65 43 49 52 38 33 30 11 357 25 28 25 24 24 20 17 15 15 13 10 7 4 360 355
113 114 114 114 114 110 107 109 112 111 109 107 105 105 105 101 93 82 68 63 66 25 26 46 44 31 4 341 23 31 28 24 24 23 22 19 19 17 14 9 5 1 356 351
113 116 115 115 112 110 108 108 108 106 104 102 100 99 91 78 72 78 79 62 59 41 41 48 32 9 338 356 33 35 33 29 24 24 25 21 18 16 13 8 5 358 355 352
108 108 109 111 112 111 109 107 104 102 101 98 92 90 91 93 83 73 80 81 58 47 61 56 25 355 331 26 36 37 36 31 28 26 24 21 18 16 16 11 7 4 358 353
101 102 106 112 110 107 109 113 112 110 106 99 96 90 81 74 77 77 80 82 77 58 78 81 40 344 9 39 39 40 41 36 25 16 22 20 18 15 13 11 6 1 358 355
100 98 94 92 93 105 114 114 111 108 106 103 97 89 84 84 88 90 89 86 81 68 58 62 57 37 42 45 44 41 41 46 36 30 26 18 19 17 12 7 6 359 354 354
101 101 102 101 100 98 99 98 97 95 94 96 96 93 90 86 81 79 77 75 75 67 61 56 50 49 49 45 47 44 40 37 33 30 26 22 19 14 10 5 0 356 351 358